Location: Moscow
(55.7500°N, 37.5830°E)
Time: 03:14:05
(UTC+03:00)

Transit 4A - Visible Passes

Search period start: 30 November 2021 00:00
Search period end: 10 December 2021 00:00
Orbit: 866 x 978 km, 66.8° (Epoch: 29 November)

Date Brightness Start Highest point End Pass type
(mag) Time Alt. Az. Time Alt. Az. Time Alt. Az.
30 Nov 9.1 03:58:20 39° E 03:58:20 39° E 04:02:24 10° ESE visible
30 Nov 8.2 05:41:53 45° WSW 05:42:30 47° WSW 05:48:31 10° S visible
30 Nov 9.7 07:25:53 10° W 07:27:27 11° W 07:29:02 10° WSW visible
01 Dec 9.0 04:08:04 39° ESE 04:08:04 39° ESE 04:11:55 10° SE visible
01 Dec 8.5 05:51:37 35° WSW 05:51:37 35° WSW 05:57:17 10° S visible
02 Dec 9.1 04:17:54 34° SE 04:17:54 34° SE 04:21:18 10° SE visible
02 Dec 9.0 06:01:28 26° WSW 06:01:28 26° WSW 06:05:49 10° SSW visible
03 Dec 9.4 04:27:49 27° SSE 04:27:49 27° SSE 04:30:32 10° SSE visible
03 Dec 9.5 06:11:23 18° SW 06:11:23 18° SW 06:14:01 10° SSW visible
03 Dec 10.1 19:32:48 10° S 19:32:57 11° S 19:32:57 11° S visible
04 Dec 9.7 04:37:48 20° SSE 04:37:48 20° SSE 04:39:37 10° SSE visible
04 Dec 9.9 06:21:22 11° SW 06:21:22 11° SW 06:21:42 10° SW visible
04 Dec 9.7 19:41:31 10° S 19:42:56 17° S 19:42:56 17° S visible
05 Dec 10.1 04:47:52 13° S 04:47:52 13° S 04:48:32 10° S visible
05 Dec 9.7 18:08:04 10° SE 18:09:16 13° ESE 18:09:16 13° ESE visible
05 Dec 9.3 19:50:28 10° SSW 19:52:50 25° SSW 19:52:50 25° SSW visible
06 Dec 9.2 18:15:51 10° SSE 18:19:07 20° ESE 18:19:07 20° ESE visible
06 Dec 9.0 19:59:34 10° SSW 20:02:40 33° SSW 20:02:40 33° SSW visible
07 Dec 8.8 18:24:07 10° SSE 18:28:52 28° ESE 18:28:52 28° ESE visible
07 Dec 8.9 20:08:50 10° SW 20:12:25 39° SW 20:12:25 39° SW visible
08 Dec 8.3 18:32:42 10° S 18:38:04 37° ESE 18:38:32 37° ESE visible
08 Dec 8.9 20:18:14 10° SW 20:22:04 41° WSW 20:22:04 41° WSW visible
09 Dec 9.7 17:00:30 10° ESE 17:02:16 11° E 17:04:02 10° E visible
09 Dec 8.0 18:41:31 10° SSW 18:47:12 50° ESE 18:48:07 46° E visible
09 Dec 9.0 20:27:43 10° WSW 20:31:39 39° W 20:31:39 39° W visible
